Location: Mannheim
(49.4880°N, 8.4650°E)
Time: 10:24:00
(UTC+02:00)

ISS - Pass Details

Date: 25 May 2022
Orbit: 414 x 420 km, 51.6° (Epoch: 30 June)

Event Time Altitude Azimuth Distance (km) Brightness Sun altitude
Rises 23:56:05 0° 288° (WNW) 2,369 0.7 -17.0°
Reaches altitude 10° 23:58:16 10° 281° (W) 1,500 -0.5 -17.1°
Enters shadow 00:01:22 38° 214° (SSW) 657 -3.1 -17.3°
